Flag for Bermuda Weather past 2 weeks in Hamilton, Bermuda

Now
70 °F

Broken clouds.


Feels Like: 70 °F
Forecast: 65 / 71 °F
Wind: 24 mph from Northwest

Location: Bermuda

Current Time: Apr 27, 2015 at 9:23:02 AM

Latest Report: Apr 27, 2015 at 8:55 AM


Visibility: N/A

Pressure: 29.56 "Hg

Humidity: 78%

Dew point: 63 °F

Location of HamiltonLocation

Historic Weather in Hamilton — Graph

°F

Hamilton temperature yesterday

Maximum temperature yesterday: 73 °F (at 4:55 PM)
Minimum temperature yesterday: 64 °F (at 12:55 AM)
Average temperature yesterday: 69 °F

Past Weeks' High & Low Weather Summary

 TemperatureHumidityPressure
High75 °F (Apr 23, 1:55 PM)94% (Apr 18, 6:03 AM)30.39 "Hg (Apr 18, 6:03 AM)
Low63 °F (Apr 24, 5:55 AM)52% (Apr 25, 2:55 AM)29.45 "Hg (Apr 27, 2:55 AM)
Average69 °F74%30.04 "Hg
* Reported Apr 12 7:55 AM — Apr 27 7:55 AM, Hamilton, Weather by CustomWeather, © 2015

Note: Actual official high and low records may vary slightly from our data, if they occured in-between our weather recording intervals... More about our weather records

Advertising

Hamilton weather history for previous 24 hours

 ConditionsComfort  
Time TempWeatherWind HumidityBarometerVisibility
7:55 AM
Mon, Apr 27
70 °FPartly sunny.28 mph73%29.53 "HgN/A
6:55 AM70 °FPassing clouds.26 mph78%29.50 "HgN/A
5:55 AM70 °FPassing clouds.30 mph83%29.47 "HgN/A
4:55 AM72 °FPassing clouds.31 mph78%29.45 "HgN/A
3:55 AM72 °FPassing clouds.28 mph83%29.45 "HgN/A
2:55 AM72 °FPassing clouds.30 mph83%29.45 "HgN/A
1:55 AM72 °FScattered showers. Passing clouds.28 mph83%29.47 "HgN/A
12:55 AM70 °FPassing clouds.24 mph88%29.47 "HgN/A
11:55 PM
Sun, Apr 26
70 °FPartly cloudy.17 mph88%29.50 "HgN/A
10:55 PM70 °FPassing clouds.20 mph88%29.53 "HgN/A
9:55 PM70 °FPassing clouds.22 mph88%29.53 "HgN/A
8:55 PM70 °FScattered clouds.24 mph83%29.50 "HgN/A
7:55 PM72 °FPassing clouds.24 mph78%29.50 "HgN/A
6:55 PM72 °FPassing clouds.23 mph83%29.50 "HgN/A
5:55 PM73 °FPassing clouds.22 mph74%29.47 "HgN/A
4:55 PM73 °FScattered clouds.22 mph78%29.50 "HgN/A
3:55 PM72 °FBroken clouds.21 mph83%29.50 "HgN/A
2:55 PM68 °FSprinkles. Broken clouds.22 mph88%29.53 "HgN/A
1:55 PM68 °FRain showers. Low clouds.24 mph88%29.59 "Hg3 mi
12:55 PM70 °FSprinkles. Mostly cloudy.35 mph78%29.59 "Hg6 mi
11:55 AM70 °FMostly cloudy.32 mph73%29.62 "HgN/A
10:55 AM70 °FSprinkles. Mostly cloudy.29 mph73%29.68 "HgN/A
9:55 AM70 °FCloudy.30 mph64%29.68 "HgN/A
Weather by CustomWeather, © 2015

See weather overviewHow to use our weather pages